UAL2415 KDEN-KIND

Flight info

Callsign UAL2415
Flight time 1h 31m
Altitude 35000
Route EMMYS8 ZIRKL LEFAM USIRE KOLTS2
Aircraft B738/M-SDE2E3FGHIRWXY/LB1

Departure

Time 2026-05-06 20:07
Airport Denver International Airport (KDEN)

Arrival

Time 2026-05-06 21:38
Airport Indianapolis International Airport (KIND)
Time Latitude Longitude Altitude Speed Heading
2026-05-06 19:44 39.85802 -104.67627 5364 ft 0 kts
2026-05-06 19:56 39.85785 -104.67627 5362 ft 4 kts
2026-05-06 19:56 39.85763 -104.67626 5363 ft 4 kts
2026-05-06 19:57 39.85741 -104.67634 5362 ft 4 kts 59°
2026-05-06 19:57 39.85737 -104.67663 5362 ft 4 kts 90°
2026-05-06 19:57 39.85737 -104.67677 5363 ft 1 kts 90°
2026-05-06 19:59 39.85737 -104.67633 5363 ft 9 kts 90°
2026-05-06 19:59 39.85738 -104.67526 5365 ft 14 kts 89°
2026-05-06 19:59 39.85738 -104.67383 5363 ft 18 kts 89°
2026-05-06 20:00 39.85735 -104.67213 5365 ft 21 kts 90°
2026-05-06 20:00 39.85734 -104.67023 5365 ft 20 kts 90°
2026-05-06 20:00 39.85730 -104.66866 5365 ft 19 kts 100°
2026-05-06 20:00 39.85662 -104.66760 5362 ft 17 kts 102°
2026-05-06 20:01 39.85660 -104.66592 5365 ft 20 kts 91°
2026-05-06 20:01 39.85681 -104.66450 5365 ft 15 kts 91°
2026-05-06 20:01 39.85681 -104.66293 5365 ft 19 kts 85°
2026-05-06 20:01 39.85784 -104.66231 5363 ft 18 kts 356°
2026-05-06 20:02 39.85928 -104.66233 5364 ft 23 kts
2026-05-06 20:02 39.86076 -104.66230 5363 ft 20 kts
2026-05-06 20:02 39.86228 -104.66227 5366 ft 21 kts 360°
2026-05-06 20:02 39.86376 -104.66225 5365 ft 22 kts
2026-05-06 20:03 39.86509 -104.66225 5365 ft 20 kts
2026-05-06 20:03 39.86667 -104.66224 5366 ft 25 kts 360°
2026-05-06 20:03 39.86845 -104.66224 5364 ft 23 kts 360°
2026-05-06 20:03 39.87022 -104.66221 5366 ft 27 kts
2026-05-06 20:04 39.87214 -104.66216 5364 ft 27 kts
2026-05-06 20:04 39.87398 -104.66215 5364 ft 28 kts
2026-05-06 20:04 39.87564 -104.66214 5366 ft 19 kts 360°
2026-05-06 20:04 39.87640 -104.66213 5365 ft 0 kts
2026-05-06 20:05 39.87649 -104.66213 5365 ft 2 kts
2026-05-06 20:05 39.87690 -104.66211 5365 ft 9 kts
2026-05-06 20:05 39.87756 -104.66156 5365 ft 14 kts 70°
2026-05-06 20:05 39.87759 -104.65885 5365 ft 54 kts 90°
2026-05-06 20:06 39.87756 -104.65176 5366 ft 101 kts 91°
2026-05-06 20:06 39.87750 -104.64087 5359 ft 138 kts 90°
2026-05-06 20:06 39.87732 -104.62692 5412 ft 166 kts 91°
2026-05-06 20:06 39.87673 -104.61189 5817 ft 170 kts 90°
2026-05-06 20:07 39.87667 -104.59561 6065 ft 187 kts 89°
2026-05-06 20:07 39.87656 -104.57839 6552 ft 191 kts 90°
2026-05-06 20:07 39.87640 -104.56085 6982 ft 196 kts 90°
2026-05-06 20:07 39.87621 -104.54231 7186 ft 213 kts 90°
2026-05-06 20:08 39.87599 -104.52224 7316 ft 230 kts 90°
2026-05-06 20:08 39.87574 -104.50062 7451 ft 249 kts 90°
2026-05-06 20:08 39.87546 -104.47715 7623 ft 269 kts 90°
2026-05-06 20:08 39.87515 -104.45240 8105 ft 277 kts 91°
2026-05-06 20:09 39.87482 -104.42717 8742 ft 280 kts 91°
2026-05-06 20:09 39.87449 -104.40171 9415 ft 283 kts 91°
2026-05-06 20:09 39.87436 -104.37600 10078 ft 286 kts 90°
2026-05-06 20:09 39.87466 -104.34948 10381 ft 303 kts 89°
2026-05-06 20:10 39.87517 -104.32164 10668 ft 317 kts 88°
2026-05-06 20:10 39.87574 -104.29260 11196 ft 324 kts 88°
2026-05-06 20:10 39.87629 -104.26321 11895 ft 325 kts 88°
2026-05-06 20:10 39.87681 -104.23362 12528 ft 330 kts 88°
2026-05-06 20:11 39.87732 -104.20351 13145 ft 335 kts 88°
2026-05-06 20:11 39.87782 -104.17295 13785 ft 340 kts 88°
2026-05-06 20:11 39.87831 -104.14200 14388 ft 345 kts 88°
2026-05-06 20:11 39.87879 -104.11050 14932 ft 351 kts 88°
2026-05-06 20:12 39.87927 -104.07849 15484 ft 357 kts 88°
2026-05-06 20:12 39.87974 -104.04587 16069 ft 363 kts 88°
2026-05-06 20:12 39.88021 -104.01279 16632 ft 369 kts 88°
2026-05-06 20:12 39.88068 -103.97906 17188 ft 375 kts 88°
2026-05-06 20:13 39.88115 -103.94532 17737 ft 380 kts 88°
2026-05-06 20:13 39.88161 -103.91065 18296 ft 386 kts 88°
2026-05-06 20:13 39.88207 -103.87533 18802 ft 392 kts 89°
2026-05-06 20:13 39.88253 -103.83974 19345 ft 395 kts 89°
2026-05-06 20:14 39.88298 -103.80380 19872 ft 399 kts 89°
2026-05-06 20:14 39.88342 -103.76755 20392 ft 403 kts 89°
2026-05-06 20:14 39.88407 -103.73094 20897 ft 407 kts 86°
2026-05-06 20:14 39.88712 -103.69415 21394 ft 410 kts 82°
2026-05-06 20:15 39.89136 -103.65723 21898 ft 414 kts 81°
2026-05-06 20:15 39.89596 -103.62004 22388 ft 418 kts 80°
2026-05-06 20:15 39.90064 -103.58251 22874 ft 422 kts 81°
2026-05-06 20:15 39.90527 -103.54457 23359 ft 426 kts 81°
2026-05-06 20:16 39.90983 -103.50627 23821 ft 430 kts 81°
2026-05-06 20:16 39.91432 -103.46761 24201 ft 434 kts 81°
2026-05-06 20:16 39.91879 -103.42856 24619 ft 436 kts 81°
2026-05-06 20:16 39.92322 -103.38937 25113 ft 437 kts 81°
2026-05-06 20:17 39.92761 -103.35023 25565 ft 438 kts 81°
2026-05-06 20:17 39.93202 -103.31080 25994 ft 440 kts 81°
2026-05-06 20:17 39.93642 -103.27133 26401 ft 442 kts 81°
2026-05-06 20:17 39.94083 -103.23166 26802 ft 444 kts 81°
2026-05-06 20:18 39.94524 -103.19183 27205 ft 445 kts 81°
2026-05-06 20:18 39.94967 -103.15174 27615 ft 447 kts 81°
2026-05-06 20:18 39.95404 -103.11207 27961 ft 450 kts 81°
2026-05-06 20:18 39.95850 -103.07140 28166 ft 456 kts 82°
2026-05-06 20:19 39.96299 -103.03040 28522 ft 458 kts 82°
2026-05-06 20:19 39.96736 -102.99032 28934 ft 458 kts 82°
2026-05-06 20:19 39.97189 -102.94862 29331 ft 459 kts 82°
2026-05-06 20:19 39.97637 -102.90727 29673 ft 461 kts 82°
2026-05-06 20:20 39.97933 -102.87984 29886 ft 463 kts 82°
2026-05-06 20:20 39.98382 -102.83818 30205 ft 465 kts 82°
2026-05-06 20:20 39.98832 -102.79631 30480 ft 467 kts 82°
2026-05-06 20:20 39.99281 -102.75433 30702 ft 470 kts 82°
2026-05-06 20:21 39.99882 -102.69788 30865 ft 477 kts 82°
2026-05-06 20:21 40.00190 -102.66890 31028 ft 478 kts 82°
2026-05-06 20:21 40.00645 -102.62592 31304 ft 479 kts 82°
2026-05-06 20:21 40.01099 -102.58279 31556 ft 480 kts 82°
2026-05-06 20:22 40.01553 -102.53960 31762 ft 482 kts 82°
2026-05-06 20:22 40.02009 -102.49609 31972 ft 485 kts 82°
2026-05-06 20:22 40.02464 -102.45243 32176 ft 487 kts 82°
2026-05-06 20:22 40.02920 -102.40860 32394 ft 489 kts 82°
2026-05-06 20:23 40.03371 -102.36502 32552 ft 492 kts 82°
2026-05-06 20:23 40.03828 -102.32067 32767 ft 494 kts 82°
2026-05-06 20:23 40.04284 -102.27629 33110 ft 492 kts 82°
2026-05-06 20:23 40.04736 -102.23208 33455 ft 491 kts 82°
2026-05-06 20:24 40.05186 -102.18789 33722 ft 491 kts 82°
2026-05-06 20:24 40.05636 -102.14365 33947 ft 492 kts 82°
2026-05-06 20:24 40.06084 -102.09934 34184 ft 492 kts 82°
2026-05-06 20:24 40.06530 -102.05505 34411 ft 492 kts 82°
2026-05-06 20:25 40.06974 -102.01081 34626 ft 492 kts 82°
2026-05-06 20:25 40.07406 -101.96755 34856 ft 491 kts 82°
2026-05-06 20:25 40.07846 -101.92340 35122 ft 489 kts 82°
2026-05-06 20:25 40.08283 -101.87933 35188 ft 492 kts 82°
2026-05-06 20:26 40.09159 -101.79044 35188 ft 492 kts 82°
2026-05-06 20:26 40.10020 -101.70243 35183 ft 486 kts 82°
2026-05-06 20:27 40.10869 -101.61493 35186 ft 485 kts 83°
2026-05-06 20:27 40.11706 -101.52794 35200 ft 486 kts 83°
2026-05-06 20:28 40.12545 -101.44018 35207 ft 487 kts 83°
2026-05-06 20:28 40.13320 -101.35208 35197 ft 489 kts 86°
2026-05-06 20:29 40.13625 -101.26314 35198 ft 491 kts 89°
2026-05-06 20:29 40.13799 -101.17382 35209 ft 492 kts 89°
2026-05-06 20:30 40.14101 -101.03930 35204 ft 495 kts 89°
2026-05-06 20:31 40.14326 -100.95018 35202 ft 497 kts 89°
2026-05-06 20:31 40.14553 -100.85990 35193 ft 497 kts 89°
2026-05-06 20:32 40.14771 -100.76964 35187 ft 497 kts 89°
2026-05-06 20:32 40.14981 -100.67948 35205 ft 496 kts 89°
2026-05-06 20:33 40.15182 -100.58954 35205 ft 494 kts 89°
2026-05-06 20:33 40.15377 -100.49965 35205 ft 494 kts 89°
2026-05-06 20:34 40.15563 -100.40999 35204 ft 493 kts 90°
2026-05-06 20:34 40.15743 -100.32027 35206 ft 493 kts 90°
2026-05-06 20:35 40.15916 -100.23061 35175 ft 493 kts 90°
2026-05-06 20:35 40.16082 -100.14085 35176 ft 494 kts 90°
2026-05-06 20:36 40.16242 -100.05094 35176 ft 495 kts 90°
2026-05-06 20:36 40.16393 -99.96182 35183 ft 496 kts 90°
2026-05-06 20:37 40.16540 -99.87153 35184 ft 498 kts 90°
2026-05-06 20:37 40.16680 -99.78090 35171 ft 499 kts 90°
2026-05-06 20:38 40.16812 -99.69050 35186 ft 500 kts 90°
2026-05-06 20:38 40.16938 -99.59946 35184 ft 501 kts 90°
2026-05-06 20:39 40.17058 -99.50822 35180 ft 502 kts 90°
2026-05-06 20:39 40.17171 -99.41679 35175 ft 503 kts 91°
2026-05-06 20:40 40.17276 -99.32530 35173 ft 504 kts 91°
2026-05-06 20:40 40.17374 -99.23363 35166 ft 505 kts 91°
2026-05-06 20:41 40.17465 -99.14177 35169 ft 505 kts 91°
2026-05-06 20:41 40.17549 -99.04977 35159 ft 506 kts 91°
2026-05-06 20:42 40.17673 -98.89685 35166 ft 506 kts 91°
2026-05-06 20:42 40.17796 -98.71262 35167 ft 507 kts 92°
2026-05-06 20:43 40.17889 -98.52778 35164 ft 508 kts 92°
2026-05-06 20:43 40.17953 -98.34289 35158 ft 509 kts 92°
2026-05-06 20:44 40.17988 -98.15729 35145 ft 510 kts 93°
2026-05-06 20:44 40.17993 -97.97552 35159 ft 510 kts 93°
2026-05-06 20:45 40.17969 -97.78985 35159 ft 511 kts 93°
2026-05-06 20:45 40.17916 -97.60385 35165 ft 511 kts 93°
2026-05-06 20:46 40.17833 -97.41911 35142 ft 512 kts 94°
2026-05-06 20:46 40.17719 -97.23282 35157 ft 512 kts 94°
2026-05-06 20:47 40.17576 -97.04610 35142 ft 514 kts 94°
2026-05-06 20:47 40.17406 -96.86195 35142 ft 514 kts 94°
2026-05-06 20:48 40.17203 -96.67522 35143 ft 513 kts 94°
2026-05-06 20:48 40.16971 -96.48922 35142 ft 512 kts 94°
2026-05-06 20:49 40.16710 -96.30308 35148 ft 511 kts 95°
2026-05-06 20:49 40.16324 -96.11793 35131 ft 511 kts 95°
2026-05-06 20:50 40.15889 -95.93482 35133 ft 511 kts 96°
2026-05-06 20:50 40.15430 -95.74900 35143 ft 512 kts 96°
2026-05-06 20:51 40.14939 -95.56220 35155 ft 514 kts 96°
2026-05-06 20:51 40.14420 -95.37634 35155 ft 517 kts 97°
2026-05-06 20:52 40.13863 -95.18791 35148 ft 521 kts 97°
2026-05-06 20:52 40.13269 -94.99790 35156 ft 530 kts 98°
2026-05-06 20:53 40.12632 -94.80459 35164 ft 544 kts 98°
2026-05-06 20:53 40.11955 -94.60645 35127 ft 543 kts 98°
2026-05-06 20:54 40.11252 -94.41125 35139 ft 535 kts 99°
2026-05-06 20:54 40.10514 -94.21715 35156 ft 534 kts 99°
2026-05-06 20:55 40.09742 -94.02293 35160 ft 539 kts 99°
2026-05-06 20:55 40.08933 -93.82745 35149 ft 550 kts 99°
2026-05-06 20:56 40.08080 -93.62766 35136 ft 551 kts 99°
2026-05-06 20:56 40.07201 -93.42958 35109 ft 541 kts 100°
2026-05-06 20:57 40.06294 -93.23455 35139 ft 537 kts 100°
2026-05-06 20:57 40.05345 -93.03876 35149 ft 546 kts 100°
2026-05-06 20:58 40.04360 -92.84122 35142 ft 557 kts 100°
2026-05-06 20:58 40.03332 -92.63988 35076 ft 552 kts 101°
2026-05-06 20:59 40.02277 -92.44149 35133 ft 547 kts 101°
2026-05-06 20:59 40.01187 -92.24376 35123 ft 546 kts 101°
2026-05-06 21:00 40.00063 -92.04527 35118 ft 552 kts 102°
2026-05-06 21:00 39.98887 -91.84601 35113 ft 569 kts 102°
2026-05-06 21:01 39.97658 -91.63995 35088 ft 567 kts 102°
2026-05-06 21:01 39.96413 -91.43763 35056 ft 553 kts 102°
2026-05-06 21:01 39.96186 -91.40199 34524 ft 549 kts 97°
2026-05-06 21:02 39.95877 -91.35371 35357 ft 524 kts 100°
2026-05-06 21:02 39.95576 -91.30641 35069 ft 525 kts 103°
2026-05-06 21:02 39.95271 -91.25938 35128 ft 529 kts 103°
2026-05-06 21:03 39.94634 -91.16277 35099 ft 541 kts 103°
2026-05-06 21:03 39.93982 -91.06401 35100 ft 552 kts 103°
2026-05-06 21:04 39.93326 -90.96521 35100 ft 562 kts 103°
2026-05-06 21:04 39.92641 -90.86305 35090 ft 568 kts 103°
2026-05-06 21:05 39.91945 -90.76032 35067 ft 570 kts 103°
2026-05-06 21:05 39.91236 -90.65731 35073 ft 570 kts 103°
2026-05-06 21:06 39.90517 -90.55449 35075 ft 570 kts 103°
2026-05-06 21:06 39.89788 -90.45178 35065 ft 568 kts 103°
2026-05-06 21:07 39.89054 -90.34960 35038 ft 566 kts 103°
2026-05-06 21:07 39.88315 -90.24781 35068 ft 563 kts 103°
2026-05-06 21:08 39.87568 -90.14643 35071 ft 562 kts 103°
2026-05-06 21:08 39.86818 -90.04605 35075 ft 561 kts 104°
2026-05-06 21:09 39.86066 -89.94639 35000 ft 562 kts 104°
2026-05-06 21:09 39.85677 -89.89557 34762 ft 565 kts 104°
2026-05-06 21:09 39.85289 -89.84477 34518 ft 563 kts 104°
2026-05-06 21:09 39.84903 -89.79419 34280 ft 559 kts 104°
2026-05-06 21:10 39.84518 -89.74405 34043 ft 556 kts 104°
2026-05-06 21:10 39.84130 -89.69411 33778 ft 553 kts 104°
2026-05-06 21:10 39.83829 -89.64404 33513 ft 556 kts 99°
2026-05-06 21:10 39.83766 -89.59372 33257 ft 557 kts 96°
2026-05-06 21:11 39.83837 -89.54319 33010 ft 556 kts 94°
2026-05-06 21:11 39.83952 -89.49300 32745 ft 555 kts 94°
2026-05-06 21:11 39.84060 -89.44292 32489 ft 552 kts 95°
2026-05-06 21:11 39.84138 -89.39308 32241 ft 550 kts 95°
2026-05-06 21:12 39.84186 -89.34344 31996 ft 548 kts 96°
2026-05-06 21:12 39.84211 -89.29400 31750 ft 545 kts 96°
2026-05-06 21:12 39.84222 -89.24478 31505 ft 543 kts 96°
2026-05-06 21:12 39.84227 -89.19576 31230 ft 541 kts 96°
2026-05-06 21:13 39.84231 -89.14698 30994 ft 538 kts 96°
2026-05-06 21:13 39.84235 -89.09832 30749 ft 536 kts 96°
2026-05-06 21:13 39.84239 -89.04993 30517 ft 534 kts 96°
2026-05-06 21:13 39.84243 -89.00168 30278 ft 531 kts 96°
2026-05-06 21:14 39.84245 -88.95501 30040 ft 529 kts 96°
2026-05-06 21:14 39.84246 -88.90722 29762 ft 526 kts 96°
2026-05-06 21:14 39.84245 -88.85981 29486 ft 524 kts 96°
2026-05-06 21:14 39.84242 -88.81253 29185 ft 521 kts 96°
2026-05-06 21:15 39.84237 -88.76549 28901 ft 518 kts 96°
2026-05-06 21:15 39.84229 -88.71885 28636 ft 515 kts 96°
2026-05-06 21:15 39.84220 -88.67244 28369 ft 511 kts 96°
2026-05-06 21:15 39.84210 -88.62633 28103 ft 508 kts 96°
2026-05-06 21:16 39.84197 -88.58045 27839 ft 505 kts 96°
2026-05-06 21:16 39.84182 -88.53493 27577 ft 501 kts 96°
2026-05-06 21:16 39.84167 -88.48980 27294 ft 497 kts 96°
2026-05-06 21:16 39.84149 -88.44493 26934 ft 494 kts 96°
2026-05-06 21:17 39.84129 -88.40039 26579 ft 491 kts 96°
2026-05-06 21:17 39.84108 -88.35607 26223 ft 488 kts 96°
2026-05-06 21:17 39.84085 -88.31197 25867 ft 486 kts 96°
2026-05-06 21:17 39.84062 -88.26806 25507 ft 484 kts 96°
2026-05-06 21:18 39.84047 -88.22435 25153 ft 483 kts 95°
2026-05-06 21:18 39.84060 -88.18078 24799 ft 481 kts 95°
2026-05-06 21:18 39.84078 -88.13734 24443 ft 479 kts 95°
2026-05-06 21:18 39.84090 -88.09413 24081 ft 477 kts 95°
2026-05-06 21:19 39.84098 -88.05084 23654 ft 477 kts 95°
2026-05-06 21:19 39.84102 -88.00768 23150 ft 477 kts 95°
2026-05-06 21:19 39.84104 -87.96623 22713 ft 476 kts 94°
2026-05-06 21:19 39.84106 -87.92324 22277 ft 474 kts 94°
2026-05-06 21:20 39.84107 -87.88043 21855 ft 472 kts 94°
2026-05-06 21:20 39.84107 -87.83785 21431 ft 470 kts 94°
2026-05-06 21:20 39.84104 -87.79546 21015 ft 467 kts 94°
2026-05-06 21:20 39.84101 -87.75328 20597 ft 465 kts 93°
2026-05-06 21:21 39.84095 -87.71127 20185 ft 462 kts 93°
2026-05-06 21:21 39.84088 -87.66950 19756 ft 460 kts 93°
2026-05-06 21:21 39.84080 -87.62809 19363 ft 457 kts 92°
2026-05-06 21:21 39.84071 -87.58682 18964 ft 454 kts 92°
2026-05-06 21:22 39.84063 -87.54579 18564 ft 452 kts 92°
2026-05-06 21:22 39.84088 -87.50501 18123 ft 450 kts 91°
2026-05-06 21:22 39.84135 -87.46440 17678 ft 447 kts 90°
2026-05-06 21:22 39.84188 -87.42413 17253 ft 443 kts 90°
2026-05-06 21:23 39.84238 -87.38416 16847 ft 439 kts 91°
2026-05-06 21:23 39.84284 -87.34458 16458 ft 435 kts 91°
2026-05-06 21:23 39.84325 -87.30538 16063 ft 431 kts 91°
2026-05-06 21:23 39.84362 -87.26649 15675 ft 427 kts 91°
2026-05-06 21:24 39.84396 -87.22805 15299 ft 423 kts 91°
2026-05-06 21:24 39.84428 -87.18987 14926 ft 419 kts 91°
2026-05-06 21:24 39.84459 -87.15216 14561 ft 416 kts 91°
2026-05-06 21:24 39.84488 -87.11468 14186 ft 412 kts 91°
2026-05-06 21:25 39.84516 -87.07756 13825 ft 408 kts 92°
2026-05-06 21:25 39.84542 -87.04080 13417 ft 405 kts 91°
2026-05-06 21:25 39.84567 -87.00436 13031 ft 400 kts 91°
2026-05-06 21:25 39.84590 -86.96946 12655 ft 389 kts 91°
2026-05-06 21:26 39.84613 -86.93488 12317 ft 376 kts 91°
2026-05-06 21:26 39.84634 -86.90143 11971 ft 364 kts 91°
2026-05-06 21:26 39.84652 -86.86947 11663 ft 352 kts 91°
2026-05-06 21:26 39.84668 -86.83803 11356 ft 342 kts 91°
2026-05-06 21:27 39.84684 -86.80750 11052 ft 333 kts 91°
2026-05-06 21:27 39.84698 -86.77780 10747 ft 324 kts 90°
2026-05-06 21:27 39.84711 -86.74883 10452 ft 315 kts 90°
2026-05-06 21:27 39.84724 -86.72061 10170 ft 309 kts 90°
2026-05-06 21:28 39.84659 -86.69284 9821 ft 306 kts 99°
2026-05-06 21:28 39.84250 -86.66580 9405 ft 304 kts 105°
2026-05-06 21:28 39.83739 -86.63906 9009 ft 304 kts 105°
2026-05-06 21:28 39.83225 -86.61227 8607 ft 307 kts 105°
2026-05-06 21:29 39.82728 -86.58520 8206 ft 308 kts 104°
2026-05-06 21:29 39.82247 -86.55796 7802 ft 310 kts 104°
2026-05-06 21:29 39.81770 -86.53056 7408 ft 311 kts 104°
2026-05-06 21:29 39.81293 -86.50303 7013 ft 312 kts 104°
2026-05-06 21:30 39.80822 -86.47575 6808 ft 306 kts 103°
2026-05-06 21:30 39.80358 -86.44897 6601 ft 301 kts 103°
2026-05-06 21:30 39.79899 -86.42259 6417 ft 297 kts 103°
2026-05-06 21:30 39.79448 -86.39668 6196 ft 291 kts 103°
2026-05-06 21:31 39.79255 -86.37155 6001 ft 277 kts 80°
2026-05-06 21:31 39.79877 -86.34904 5985 ft 255 kts 57°
2026-05-06 21:31 39.80948 -86.33190 5981 ft 238 kts 40°
2026-05-06 21:31 39.82136 -86.31672 5988 ft 240 kts 41°
2026-05-06 21:32 39.83319 -86.30152 5979 ft 237 kts 41°
2026-05-06 21:32 39.85639 -86.27151 5973 ft 233 kts 41°
2026-05-06 21:32 39.86789 -86.25672 5946 ft 234 kts 39°
2026-05-06 21:33 39.88002 -86.24223 5868 ft 237 kts 39°
2026-05-06 21:33 39.88948 -86.22496 5801 ft 234 kts 70°
2026-05-06 21:33 39.89052 -86.20461 5704 ft 222 kts 104°
2026-05-06 21:33 39.88320 -86.18751 5379 ft 215 kts 140°
2026-05-06 21:34 39.87124 -86.17613 5042 ft 212 kts 149°
2026-05-06 21:34 39.85882 -86.16586 4652 ft 211 kts 149°
2026-05-06 21:34 39.84616 -86.15636 4293 ft 208 kts 160°
2026-05-06 21:34 39.83219 -86.15401 3919 ft 203 kts 197°
2026-05-06 21:35 39.81992 -86.16244 3612 ft 201 kts 226°
2026-05-06 21:35 39.81106 -86.17595 3342 ft 195 kts 237°
2026-05-06 21:35 39.80335 -86.19034 3008 ft 190 kts 239°
2026-05-06 21:35 39.79590 -86.20406 2772 ft 183 kts 236°
2026-05-06 21:36 39.78717 -86.21598 2400 ft 186 kts 227°
2026-05-06 21:36 39.77781 -86.22733 2024 ft 181 kts 229°
2026-05-06 21:36 39.76915 -86.23884 1650 ft 177 kts 230°
2026-05-06 21:36 39.76103 -86.25013 1480 ft 164 kts 228°
2026-05-06 21:37 39.75326 -86.26048 1318 ft 156 kts 230°
2026-05-06 21:37 39.74602 -86.26986 1193 ft 140 kts 227°
2026-05-06 21:37 39.73929 -86.27858 1031 ft 133 kts 231°
2026-05-06 21:37 39.73276 -86.28688 891 ft 130 kts 229°
2026-05-06 21:38 39.72652 -86.29504 786 ft 122 kts 231°
2026-05-06 21:38 39.72138 -86.30185 785 ft 84 kts 224°
2026-05-06 21:38 39.71797 -86.30600 781 ft 59 kts 225°
2026-05-06 21:38 39.71571 -86.30888 787 ft 27 kts 224°
2026-05-06 21:39 39.71428 -86.31001 787 ft 21 kts 191°
2026-05-06 21:39 39.71312 -86.30943 785 ft 15 kts 82°
2026-05-06 21:39 39.71387 -86.30835 787 ft 17 kts 43°
2026-05-06 21:39 39.71483 -86.30716 786 ft 22 kts 44°
2026-05-06 21:40 39.71601 -86.30561 784 ft 26 kts 45°
2026-05-06 21:40 39.71730 -86.30396 781 ft 27 kts 44°
2026-05-06 21:40 39.71864 -86.30229 782 ft 24 kts 48°
2026-05-06 21:40 39.71838 -86.30068 783 ft 17 kts 124°
2026-05-06 21:41 39.71792 -86.29964 786 ft 13 kts 92°
2026-05-06 21:41 39.71818 -86.29838 788 ft 15 kts 76°
2026-05-06 21:41 39.71803 -86.29788 788 ft 5 kts 143°
2026-05-06 21:41 39.71787 -86.29773 791 ft 3 kts 142°
2026-05-06 21:42 39.71784 -86.29769 792 ft 0 kts 142°